When you browse on this site, cookies collect data to enhance your experience and personalize the content and advertising you see.
Visit our Privacy Policy to learn more. By continuing to use the site, you agree to this use of cookies and data.

Meteo pe oră la Dziadowizna

Astăzi, 26 Septembrie, Sâmbătă

Timp Temperatura Precipitaţii Vânt Presiune Umiditate
00:00 +16°C° 0.9 mm 1 m/s 724 mmHg 94%
01:00 +16°C° 0 mm 1 m/s 723 mmHg 94%
02:00 +16°C° 0.6 mm 1 m/s 723 mmHg 94%
03:00 +16°C° 0.6 mm 1 m/s 722 mmHg 94%
04:00 +16°C° 0.6 mm 1 m/s 722 mmHg 95%
05:00 +16°C° 0 mm 2 m/s 721 mmHg 93%
06:00 +16°C° 0 mm 2 m/s 721 mmHg 92%
07:00 +16°C° 0 mm 2 m/s 720 mmHg 88%
08:00 +16°C° 0.6 mm 2 m/s 721 mmHg 88%
09:00 +16°C° 0.6 mm 2 m/s 721 mmHg 88%
10:00 +16°C° 0.6 mm 2 m/s 722 mmHg 88%
11:00 +16°C° 0.1 mm 3 m/s 722 mmHg 82%
12:00 +15°C° 0.1 mm 5 m/s 723 mmHg 76%
13:00 +15°C° 0.1 mm 6 m/s 723 mmHg 69%
14:00 +15°C° 0 mm 5 m/s 724 mmHg 68%
15:00 +14°C° 0 mm 5 m/s 724 mmHg 67%
16:00 +14°C° 0 mm 5 m/s 725 mmHg 66%
17:00 +13°C° 0 mm 5 m/s 726 mmHg 69%
18:00 +12°C° 0 mm 4 m/s 726 mmHg 71%
19:00 +11°C° 0 mm 4 m/s 727 mmHg 74%
20:00 +10°C° 0 mm 3 m/s 727 mmHg 74%
21:00 +10°C° 0 mm 3 m/s 727 mmHg 74%
22:00 +10°C° 0 mm 3 m/s 728 mmHg 75%
23:00 +9°C° 0 mm 3 m/s 728 mmHg 75%

Mâine, 27 Septembrie, Duminică

Timp Temperatura Precipitaţii Vânt Presiune Umiditate
00:00 +9°C° 0 mm 3 m/s 728 mmHg 75%
01:00 +9°C° 0 mm 3 m/s 728 mmHg 76%
02:00 +9°C° 0 mm 3 m/s 728 mmHg 77%
03:00 +9°C° 0 mm 3 m/s 728 mmHg 77%
04:00 +9°C° 0 mm 3 m/s 728 mmHg 78%
05:00 +9°C° 0 mm 3 m/s 729 mmHg 78%
06:00 +9°C° 0 mm 3 m/s 729 mmHg 78%
07:00 +8°C° 0 mm 4 m/s 729 mmHg 78%
08:00 +8°C° 0 mm 4 m/s 729 mmHg 75%
09:00 +10°C° 0 mm 4 m/s 730 mmHg 73%
10:00 +11°C° 0 mm 4 m/s 730 mmHg 70%
11:00 +11°C° 0 mm 4 m/s 731 mmHg 68%
12:00 +12°C° 0 mm 5 m/s 731 mmHg 65%
13:00 +13°C° 0 mm 5 m/s 732 mmHg 63%
14:00 +13°C° 0 mm 5 m/s 732 mmHg 63%
15:00 +13°C° 0 mm 5 m/s 732 mmHg 63%
16:00 +13°C° 0 mm 5 m/s 733 mmHg 63%
17:00 +12°C° 0 mm 4 m/s 733 mmHg 66%
18:00 +11°C° 0 mm 4 m/s 734 mmHg 69%
19:00 +10°C° 0 mm 3 m/s 734 mmHg 72%
20:00 +10°C° 0 mm 3 m/s 735 mmHg 73%
21:00 +9°C° 0 mm 3 m/s 735 mmHg 74%
22:00 +9°C° 0 mm 2 m/s 736 mmHg 75%
23:00 +8°C° 0 mm 2 m/s 736 mmHg 76%

Poimâine, 28 Septembrie, Luni

Timp Temperatura Precipitaţii Vânt Presiune Umiditate
00:00 +8°C° 0 mm 2 m/s 736 mmHg 76%
01:00 +8°C° 0 mm 2 m/s 736 mmHg 77%
02:00 +8°C° 0 mm 2 m/s 736 mmHg 77%
03:00 +8°C° 0 mm 2 m/s 736 mmHg 76%
04:00 +7°C° 0 mm 2 m/s 736 mmHg 76%
05:00 +8°C° 0.1 mm 2 m/s 736 mmHg 75%
06:00 +10°C° 0.1 mm 1 m/s 736 mmHg 74%
07:00 +10°C° 0.1 mm 1 m/s 736 mmHg 73%
08:00 +10°C° 0.3 mm 1 m/s 736 mmHg 75%
09:00 +11°C° 0.3 mm 1 m/s 736 mmHg 78%
10:00 +11°C° 0.3 mm 1 m/s 736 mmHg 80%
11:00 +12°C° 0.3 mm 1 m/s 736 mmHg 77%
12:00 +13°C° 0.3 mm 1 m/s 736 mmHg 75%
13:00 +13°C° 0.3 mm 1 m/s 736 mmHg 72%
14:00 +13°C° 0.1 mm 1 m/s 736 mmHg 74%
15:00 +13°C° 0.1 mm 1 m/s 736 mmHg 75%
16:00 +14°C° 0.1 mm 1 m/s 735 mmHg 77%
17:00 +13°C° 0 mm 1 m/s 736 mmHg 80%
18:00 +12°C° 0 mm 1 m/s 736 mmHg 83%
19:00 +12°C° 0 mm 1 m/s 736 mmHg 86%
20:00 +11°C° 0 mm 1 m/s 736 mmHg 87%
21:00 +11°C° 0 mm 1 m/s 736 mmHg 88%
22:00 +11°C° 0 mm 1 m/s 736 mmHg 89%
23:00 +11°C° 0.1 mm 1 m/s 736 mmHg 89%

29 Septembrie, Marţi

Timp Temperatura Precipitaţii Vânt Presiune Umiditate
00:00 +11°C° 0.1 mm 1 m/s 736 mmHg 89%
01:00 +11°C° 0.1 mm 1 m/s 737 mmHg 90%
02:00 +10°C° 0.4 mm 0 m/s 737 mmHg 91%
03:00 +10°C° 0.4 mm 0 m/s 737 mmHg 92%
04:00 +10°C° 0.4 mm 0 m/s 737 mmHg 94%
05:00 +10°C° 0.1 mm 0 m/s 737 mmHg 93%
06:00 +11°C° 0.1 mm 1 m/s 737 mmHg 92%
07:00 +12°C° 0.1 mm 1 m/s 737 mmHg 92%
08:00 +13°C° 0 mm 1 m/s 737 mmHg 86%
09:00 +14°C° 0 mm 1 m/s 737 mmHg 81%
10:00 +15°C° 0 mm 2 m/s 737 mmHg 76%
11:00 +16°C° 0.1 mm 2 m/s 737 mmHg 72%
12:00 +16°C° 0.1 mm 2 m/s 737 mmHg 69%
13:00 +17°C° 0.1 mm 2 m/s 737 mmHg 66%
14:00 +17°C° 0 mm 2 m/s 737 mmHg 66%
15:00 +18°C° 0 mm 1 m/s 737 mmHg 67%
16:00 +18°C° 0 mm 1 m/s 737 mmHg 67%
17:00 +16°C° 0 mm 1 m/s 738 mmHg 71%
18:00 +15°C° 0 mm 1 m/s 738 mmHg 74%
19:00 +14°C° 0 mm 1 m/s 738 mmHg 77%
20:00 +14°C° 0 mm 1 m/s 738 mmHg 78%
21:00 +13°C° 0 mm 1 m/s 738 mmHg 79%
22:00 +13°C° 0 mm 1 m/s 738 mmHg 80%
23:00 +13°C° 0 mm 1 m/s 738 mmHg 82%

30 Septembrie, Miercuri

Timp Temperatura Precipitaţii Vânt Presiune Umiditate
00:00 +12°C° 0 mm 1 m/s 738 mmHg 84%
01:00 +10°C° 0 mm 2 m/s 738 mmHg 86%
02:00 +11°C° 0 mm 1 m/s 738 mmHg 88%
03:00 +11°C° 0 mm 1 m/s 738 mmHg 89%
04:00 +10°C° 0 mm 1 m/s 738 mmHg 91%
05:00 +10°C° 0 mm 1 m/s 738 mmHg 89%
06:00 +10°C° 0 mm 2 m/s 738 mmHg 88%
07:00 +10°C° 0 mm 2 m/s 738 mmHg 86%
08:00 +13°C° 0 mm 2 m/s 737 mmHg 81%
09:00 +14°C° 0 mm 2 m/s 737 mmHg 75%
10:00 +14°C° 0 mm 3 m/s 737 mmHg 70%
11:00 +14°C° 0 mm 3 m/s 737 mmHg 72%
12:00 +14°C° 0 mm 3 m/s 736 mmHg 74%
13:00 +13°C° 0 mm 3 m/s 736 mmHg 77%
14:00 +13°C° 0 mm 3 m/s 736 mmHg 79%
15:00 +13°C° 0 mm 3 m/s 735 mmHg 82%
16:00 +13°C° 0 mm 2 m/s 735 mmHg 84%
17:00 +13°C° 0 mm 2 m/s 735 mmHg 86%
18:00 +13°C° 0 mm 2 m/s 735 mmHg 88%
19:00 +13°C° 0 mm 2 m/s 735 mmHg 90%
20:00 +13°C° 0.3 mm 2 m/s 735 mmHg 91%
21:00 +13°C° 0.3 mm 2 m/s 735 mmHg 93%
22:00 +12°C° 0.3 mm 3 m/s 735 mmHg 94%
23:00 +12°C° 0.2 mm 3 m/s 734 mmHg 94%

1 Octombrie, Joi

Timp Temperatura Precipitaţii Vânt Presiune Umiditate
00:00 +12°C° 0.2 mm 3 m/s 734 mmHg 94%
01:00 +12°C° 0.2 mm 3 m/s 733 mmHg 94%
02:00 +11°C° 0 mm 3 m/s 733 mmHg 94%
03:00 +11°C° 0 mm 3 m/s 733 mmHg 93%
04:00 +11°C° 0 mm 3 m/s 733 mmHg 93%
05:00 +11°C° 0.5 mm 3 m/s 732 mmHg 93%
06:00 +12°C° 0.5 mm 3 m/s 732 mmHg 93%
07:00 +12°C° 0.5 mm 3 m/s 732 mmHg 94%
08:00 +12°C° 0.6 mm 3 m/s 732 mmHg 93%
09:00 +12°C° 0.6 mm 3 m/s 732 mmHg 92%
10:00 +12°C° 0.6 mm 3 m/s 731 mmHg 92%
11:00 +13°C° 0.2 mm 3 m/s 731 mmHg 89%
12:00 +15°C° 0.2 mm 2 m/s 731 mmHg 85%
13:00 +15°C° 0.2 mm 2 m/s 731 mmHg 82%
14:00 +15°C° 0.2 mm 2 m/s 731 mmHg 82%
15:00 +16°C° 0.2 mm 2 m/s 731 mmHg 82%
16:00 +16°C° 0.2 mm 1 m/s 731 mmHg 82%
17:00 +15°C° 0.1 mm 2 m/s 731 mmHg 83%
18:00 +14°C° 0.1 mm 2 m/s 731 mmHg 84%
19:00 +14°C° 0.1 mm 2 m/s 731 mmHg 85%
20:00 +13°C° 0 mm 2 m/s 731 mmHg 86%
21:00 +13°C° 0 mm 2 m/s 731 mmHg 86%
22:00 +12°C° 0 mm 2 m/s 731 mmHg 87%
23:00 +12°C° 0 mm 2 m/s 731 mmHg 87%
Arată mai mult